Time,TemperatureF,DewpointF,PressureIn,WindDirection,WindDirectionDegrees,WindSpeedMPH,WindSpeedGustMPH,Humidity,HourlyPrecipIn,Conditions,Clouds,dailyrainin,SoftwareType,DateUTC
2013-07-17 00:00:00,76.9,72.1,30.15,West,270,2.0,0.0,85,0.00,,OVC003,0.00,VWS V14.01,2013-07-17 04:00:00,
2013-07-17 00:01:00,77.1,72.2,30.16,West,270,2.0,0.0,85,0.00,,OVC003,0.00,VWS V14.01,2013-07-17 04:01:00,
2013-07-17 00:02:00,77.1,71.9,30.16,West,270,2.0,0.0,84,0.00,,OVC003,0.00,VWS V14.01,2013-07-17 04:02:00,
2013-07-17 00:04:00,77.0,72.2,30.16,West,270,2.0,0.0,85,0.00,,OVC003,0.00,VWS V14.01,2013-07-17 04:04:00,
2013-07-17 00:05:00,76.7,71.9,30.15,West,270,2.0,0.0,85,0.00,,OVC003,0.00,VWS V14.01,2013-07-17 04:05:00,
2013-07-17 00:06:00,76.9,72.1,30.16,West,270,2.0,0.0,85,0.00,,OVC003,0.00,VWS V14.01,2013-07-17 04:06:00,
2013-07-17 00:07:00,76.9,72.1,30.16,West,270,2.0,0.0,85,0.00,,OVC003,0.00,VWS V14.01,2013-07-17 04:07:00,
2013-07-17 00:10:00,76.6,71.8,30.15,West,270,2.0,0.0,85,0.00,,OVC003,0.00,VWS V14.01,2013-07-17 04:10:00,
2013-07-17 00:12:00,76.8,71.9,30.15,West,270,2.0,0.0,85,0.00,,OVC003,0.00,VWS V14.01,2013-07-17 04:12:00,
2013-07-17 00:15:00,76.5,71.7,30.16,West,270,2.0,0.0,85,0.00,,OVC003,0.00,VWS V14.01,2013-07-17 04:15:00,
2013-07-17 00:17:00,76.6,71.8,30.15,West,270,2.0,0.0,85,0.00,,OVC003,0.00,VWS V14.01,2013-07-17 04:17:00,
2013-07-17 00:20:00,76.4,71.6,30.16,West,270,2.0,0.0,85,0.00,,OVC003,0.00,VWS V14.01,2013-07-17 04:20:00,
2013-07-17 00:22:00,76.6,71.8,30.15,West,270,2.0,0.0,85,0.00,,OVC003,0.00,VWS V14.01,2013-07-17 04:22:00,
2013-07-17 00:25:00,76.2,71.4,30.16,West,270,2.0,0.0,85,0.00,,OVC003,0.00,VWS V14.01,2013-07-17 04:25:00,
2013-07-17 00:27:00,76.5,71.7,30.16,West,270,2.0,0.0,85,0.00,,OVC003,0.00,VWS V14.01,2013-07-17 04:27:00,
2013-07-17 00:30:00,76.0,71.5,30.16,West,270,2.0,0.0,86,0.00,,OVC003,0.00,VWS V14.01,2013-07-17 04:30:00,
2013-07-17 00:32:00,76.3,71.5,30.16,West,270,2.0,0.0,85,0.00,,OVC003,0.00,VWS V14.01,2013-07-17 04:32:00,
2013-07-17 00:35:00,75.9,71.4,30.16,West,270,2.0,0.0,86,0.00,,OVC003,0.00,VWS V14.01,2013-07-17 04:35:00,
2013-07-17 00:37:00,76.1,71.6,30.16,West,270,2.0,0.0,86,0.00,,OVC003,0.00,VWS V14.01,2013-07-17 04:37:00,
2013-07-17 00:40:00,75.8,71.3,30.16,West,270,2.0,0.0,86,0.00,,OVC003,0.00,VWS V14.01,2013-07-17 04:40:00,
2013-07-17 00:42:00,76.0,71.5,30.16,West,270,2.0,0.0,86,0.00,,OVC003,0.00,VWS V14.01,2013-07-17 04:42:00,
2013-07-17 00:45:00,75.7,71.6,30.16,West,270,2.0,0.0,87,0.00,,OVC003,0.00,VWS V14.01,2013-07-17 04:45:00,
2013-07-17 00:47:00,75.8,71.3,30.16,West,270,2.0,0.0,86,0.00,,OVC003,0.00,VWS V14.01,2013-07-17 04:47:00,
2013-07-17 00:50:00,75.7,71.6,30.16,West,270,2.0,0.0,87,0.00,,OVC003,0.00,VWS V14.01,2013-07-17 04:50:00,
2013-07-17 00:52:00,75.8,71.7,30.16,West,270,2.0,0.0,87,0.00,,OVC003,0.00,VWS V14.01,2013-07-17 04:52:00,
2013-07-17 00:55:00,75.5,71.4,30.16,West,270,2.0,0.0,87,0.00,,OVC003,0.00,VWS V14.01,2013-07-17 04:55:00,
2013-07-17 00:57:00,75.7,71.6,30.16,West,270,2.0,0.0,87,0.00,,OVC003,0.00,VWS V14.01,2013-07-17 04:57:00,
2013-07-17 00:59:00,75.7,71.6,30.16,West,270,2.0,0.0,87,0.00,,OVC003,0.00,VWS V14.01,2013-07-17 04:59:00,
2013-07-17 01:00:00,75.5,71.4,30.16,West,270,2.0,0.0,87,0.00,,OVC003,0.00,VWS V14.01,2013-07-17 05:00:00,
2013-07-17 01:03:00,75.5,71.4,30.16,West,270,2.0,0.0,87,0.00,,OVC003,0.00,VWS V14.01,2013-07-17 05:03:00,
2013-07-17 01:05:00,75.4,71.3,30.16,West,270,2.0,0.0,87,0.00,,OVC003,0.00,VWS V14.01,2013-07-17 05:05:00,
2013-07-17 01:08:00,75.5,71.4,30.16,West,270,2.0,0.0,87,0.00,,OVC003,0.00,VWS V14.01,2013-07-17 05:08:00,
2013-07-17 01:10:00,75.4,71.3,30.16,West,270,2.0,0.0,87,0.00,,OVC003,0.00,VWS V14.01,2013-07-17 05:10:00,
2013-07-17 01:13:00,75.4,71.3,30.16,West,270,2.0,0.0,87,0.00,,OVC003,0.00,VWS V14.01,2013-07-17 05:13:00,
2013-07-17 01:15:00,75.3,71.2,30.16,West,270,2.0,0.0,87,0.00,,OVC003,0.00,VWS V14.01,2013-07-17 05:15:00,
2013-07-17 01:18:00,75.4,71.3,30.16,West,270,2.0,0.0,87,0.00,,OVC003,0.00,VWS V14.01,2013-07-17 05:18:00,
2013-07-17 01:20:00,75.1,71.0,30.16,West,270,2.0,0.0,87,0.00,,OVC003,0.00,VWS V14.01,2013-07-17 05:20:00,
2013-07-17 01:23:00,75.3,71.2,30.16,West,270,2.0,0.0,87,0.00,,OVC003,0.00,VWS V14.01,2013-07-17 05:23:00,
2013-07-17 01:25:00,74.9,70.8,30.16,West,270,2.0,0.0,87,0.00,,OVC003,0.00,VWS V14.01,2013-07-17 05:25:00,
2013-07-17 01:28:00,75.1,71.0,30.16,West,270,2.0,0.0,87,0.00,,OVC003,0.00,VWS V14.01,2013-07-17 05:28:00,
2013-07-17 01:30:00,74.7,70.6,30.16,West,270,2.0,2.0,87,0.00,,OVC003,0.00,VWS V14.01,2013-07-17 05:30:00,
2013-07-17 01:33:00,74.9,70.8,30.16,West,270,2.0,0.0,87,0.00,,OVC003,0.00,VWS V14.01,2013-07-17 05:33:00,
2013-07-17 01:35:00,74.6,70.8,30.16,West,270,2.0,0.0,88,0.00,,OVC003,0.00,VWS V14.01,2013-07-17 05:35:00,
2013-07-17 01:38:00,74.8,70.7,30.16,West,270,2.0,0.0,87,0.00,,OVC003,0.00,VWS V14.01,2013-07-17 05:38:00,
2013-07-17 01:40:00,74.5,70.7,30.16,West,270,2.0,0.0,88,0.00,,OVC003,0.00,VWS V14.01,2013-07-17 05:40:00,
2013-07-17 01:43:00,74.6,70.8,30.16,West,270,2.0,0.0,88,0.00,,OVC003,0.00,VWS V14.01,2013-07-17 05:43:00,
2013-07-17 01:45:00,74.4,70.6,30.15,West,270,2.0,0.0,88,0.00,,OVC003,0.00,VWS V14.01,2013-07-17 05:45:00,
2013-07-17 01:48:00,74.5,70.7,30.16,West,270,2.0,0.0,88,0.00,,OVC003,0.00,VWS V14.01,2013-07-17 05:48:00,
2013-07-17 01:50:00,74.3,70.5,30.15,West,270,2.0,0.0,88,0.00,,OVC003,0.00,VWS V14.01,2013-07-17 05:50:00,
2013-07-17 01:53:00,74.4,70.6,30.15,West,270,2.0,0.0,88,0.00,,OVC003,0.00,VWS V14.01,2013-07-17 05:53:00,
2013-07-17 01:55:00,74.2,70.4,30.15,West,270,2.0,0.0,88,0.00,,OVC003,0.00,VWS V14.01,2013-07-17 05:55:00,
2013-07-17 01:58:00,74.3,70.5,30.15,West,270,2.0,0.0,88,0.00,,OVC003,0.00,VWS V14.01,2013-07-17 05:58:00,
2013-07-17 02:00:00,74.1,70.7,30.16,West,270,2.0,0.0,89,0.00,,OVC003,0.00,VWS V14.01,2013-07-17 06:00:00,
2013-07-17 02:04:00,74.2,70.4,30.15,West,270,2.0,0.0,88,0.00,,OVC003,0.00,VWS V14.01,2013-07-17 06:04:00,
2013-07-17 02:05:00,74.0,70.2,30.16,West,270,2.0,0.0,88,0.00,,OVC003,0.00,VWS V14.01,2013-07-17 06:05:00,
2013-07-17 02:09:00,74.1,70.7,30.16,West,270,2.0,0.0,89,0.00,,OVC003,0.00,VWS V14.01,2013-07-17 06:09:00,
2013-07-17 02:10:00,73.9,70.5,30.16,West,270,2.0,0.0,89,0.00,,OVC003,0.00,VWS V14.01,2013-07-17 06:10:00,
2013-07-17 02:14:00,74.0,70.2,30.16,West,270,2.0,0.0,88,0.00,,OVC003,0.00,VWS V14.01,2013-07-17 06:14:00,
2013-07-17 02:15:00,73.7,70.3,30.15,West,270,2.0,0.0,89,0.00,,OVC003,0.00,VWS V14.01,2013-07-17 06:15:00,
2013-07-17 02:19:00,73.8,70.4,30.16,West,270,2.0,0.0,89,0.00,,OVC003,0.00,VWS V14.01,2013-07-17 06:19:00,
2013-07-17 02:20:00,73.6,70.2,30.15,West,270,2.0,0.0,89,0.00,,OVC003,0.00,VWS V14.01,2013-07-17 06:20:00,
2013-07-17 02:24:00,73.7,70.3,30.15,West,270,2.0,0.0,89,0.00,,OVC003,0.00,VWS V14.01,2013-07-17 06:24:00,
2013-07-17 02:25:00,73.5,70.1,30.15,West,270,2.0,0.0,89,0.00,,OVC003,0.00,VWS V14.01,2013-07-17 06:25:00,
2013-07-17 02:29:00,73.6,70.2,30.15,West,270,2.0,0.0,89,0.00,,OVC003,0.00,VWS V14.01,2013-07-17 06:29:00,
2013-07-17 02:30:00,73.4,70.0,30.15,West,270,2.0,2.0,89,0.00,,OVC003,0.00,VWS V14.01,2013-07-17 06:30:00,
2013-07-17 02:35:00,73.5,70.1,30.15,West,270,2.0,0.0,89,0.00,,OVC003,0.00,VWS V14.01,2013-07-17 06:35:00,
2013-07-17 02:40:00,73.5,70.4,30.15,West,270,2.0,0.0,90,0.00,,OVC003,0.00,VWS V14.01,2013-07-17 06:40:00,
2013-07-17 02:45:00,73.4,70.3,30.15,West,270,2.0,0.0,90,0.00,,OVC003,0.00,VWS V14.01,2013-07-17 06:45:00,
2013-07-17 02:50:00,73.4,70.3,30.15,West,270,2.0,0.0,90,0.00,,OVC003,0.00,VWS V14.01,2013-07-17 06:50:00,
2013-07-17 02:55:00,73.4,70.3,30.14,West,270,2.0,0.0,90,0.00,,OVC003,0.00,VWS V14.01,2013-07-17 06:55:00,
2013-07-17 03:00:00,73.3,70.2,30.14,West,270,2.0,0.0,90,0.00,,OVC003,0.00,VWS V14.01,2013-07-17 07:00:00,
2013-07-17 03:05:00,73.3,70.2,30.14,West,270,2.0,0.0,90,0.00,,OVC003,0.00,VWS V14.01,2013-07-17 07:05:00,
2013-07-17 03:10:00,73.3,70.2,30.14,West,270,2.0,0.0,90,0.00,,OVC003,0.00,VWS V14.01,2013-07-17 07:10:00,
2013-07-17 03:15:00,73.2,70.1,30.14,West,270,2.0,0.0,90,0.00,,OVC003,0.00,VWS V14.01,2013-07-17 07:15:00,
2013-07-17 03:20:00,73.1,70.0,30.14,West,270,2.0,0.0,90,0.00,,OVC003,0.00,VWS V14.01,2013-07-17 07:20:00,
2013-07-17 03:25:00,73.1,70.0,30.15,West,270,2.0,0.0,90,0.00,,OVC003,0.00,VWS V14.01,2013-07-17 07:25:00,
2013-07-17 03:30:00,73.0,69.9,30.15,West,270,2.0,0.0,90,0.00,,OVC003,0.00,VWS V14.01,2013-07-17 07:30:00,
2013-07-17 03:35:00,72.8,69.7,30.15,West,270,2.0,0.0,90,0.00,,OVC003,0.00,VWS V14.01,2013-07-17 07:35:00,
2013-07-17 03:40:00,72.8,69.7,30.15,West,270,2.0,0.0,90,0.00,,OVC003,0.00,VWS V14.01,2013-07-17 07:40:00,
2013-07-17 03:45:00,72.8,69.7,30.15,West,270,2.0,0.0,90,0.00,,OVC003,0.00,VWS V14.01,2013-07-17 07:45:00,
2013-07-17 03:50:00,72.7,69.6,30.15,West,270,2.0,0.0,90,0.00,,OVC003,0.00,VWS V14.01,2013-07-17 07:50:00,
2013-07-17 03:55:00,72.6,69.5,30.14,West,270,2.0,0.0,90,0.00,,OVC003,0.00,VWS V14.01,2013-07-17 07:55:00,
2013-07-17 04:00:00,72.6,69.5,30.14,West,270,2.0,0.0,90,0.00,,OVC003,0.00,VWS V14.01,2013-07-17 08:00:00,
2013-07-17 04:05:00,72.4,69.3,30.14,West,270,2.0,0.0,90,0.00,,OVC003,0.00,VWS V14.01,2013-07-17 08:05:00,
2013-07-17 04:10:00,72.3,69.5,30.15,West,270,2.0,0.0,91,0.00,,OVC003,0.00,VWS V14.01,2013-07-17 08:10:00,
2013-07-17 04:15:00,72.2,69.4,30.15,West,270,2.0,0.0,91,0.00,,OVC003,0.00,VWS V14.01,2013-07-17 08:15:00,
2013-07-17 04:20:00,72.2,69.4,30.15,West,270,2.0,0.0,91,0.00,,OVC003,0.00,VWS V14.01,2013-07-17 08:20:00,
2013-07-17 04:25:00,72.1,69.3,30.14,West,270,2.0,0.0,91,0.00,,OVC003,0.00,VWS V14.01,2013-07-17 08:25:00,
2013-07-17 04:30:00,72.1,69.3,30.14,West,270,2.0,0.0,91,0.00,,OVC003,0.00,VWS V14.01,2013-07-17 08:30:00,
2013-07-17 04:35:00,72.1,69.3,30.14,West,270,2.0,0.0,91,0.00,,OVC003,0.00,VWS V14.01,2013-07-17 08:35:00,
2013-07-17 04:40:00,72.1,69.3,30.14,West,270,2.0,0.0,91,0.00,,OVC003,0.00,VWS V14.01,2013-07-17 08:40:00,
2013-07-17 04:45:00,72.0,69.2,30.14,West,270,2.0,0.0,91,0.00,,OVC003,0.00,VWS V14.01,2013-07-17 08:45:00,
2013-07-17 04:50:00,72.0,69.2,30.14,West,270,2.0,0.0,91,0.00,,OVC003,0.00,VWS V14.01,2013-07-17 08:50:00,
2013-07-17 04:55:00,72.0,69.2,30.15,West,270,2.0,0.0,91,0.00,,OVC003,0.00,VWS V14.01,2013-07-17 08:55:00,
2013-07-17 05:00:00,71.9,69.1,30.15,West,270,2.0,0.0,91,0.00,,OVC003,0.00,VWS V14.01,2013-07-17 09:00:00,
2013-07-17 05:05:00,71.9,69.1,30.15,West,270,2.0,0.0,91,0.00,,OVC003,0.00,VWS V14.01,2013-07-17 09:05:00,
2013-07-17 05:10:00,71.8,69.0,30.15,West,270,2.0,0.0,91,0.00,,OVC003,0.00,VWS V14.01,2013-07-17 09:10:00,
2013-07-17 05:11:00,71.8,69.0,30.15,West,270,2.0,0.0,91,0.00,,OVC003,0.00,VWS V14.01,2013-07-17 09:11:00,
2013-07-17 05:15:00,71.7,68.9,30.16,West,270,2.0,0.0,91,0.00,,OVC003,0.00,VWS V14.01,2013-07-17 09:15:00,
2013-07-17 05:16:00,71.8,69.0,30.15,West,270,2.0,0.0,91,0.00,,OVC003,0.00,VWS V14.01,2013-07-17 09:16:00,
2013-07-17 05:20:00,71.7,68.9,30.16,West,270,2.0,0.0,91,0.00,,OVC003,0.00,VWS V14.01,2013-07-17 09:20:00,
2013-07-17 05:21:00,71.7,68.9,30.15,West,270,2.0,0.0,91,0.00,,OVC003,0.00,VWS V14.01,2013-07-17 09:21:00,
2013-07-17 05:25:00,71.7,68.9,30.16,West,270,2.0,0.0,91,0.00,,OVC003,0.00,VWS V14.01,2013-07-17 09:25:00,
2013-07-17 05:26:00,71.7,68.9,30.16,West,270,2.0,0.0,91,0.00,,OVC003,0.00,VWS V14.01,2013-07-17 09:26:00,
2013-07-17 05:30:00,71.6,68.8,30.16,West,270,2.0,0.0,91,0.00,,OVC003,0.00,VWS V14.01,2013-07-17 09:30:00,
2013-07-17 05:31:00,71.7,68.9,30.16,West,270,2.0,0.0,91,0.00,,OVC003,0.00,VWS V14.01,2013-07-17 09:31:00,
2013-07-17 05:35:00,71.5,68.7,30.16,West,270,2.0,2.0,91,0.00,,OVC003,0.00,VWS V14.01,2013-07-17 09:35:00,
2013-07-17 05:36:00,71.7,68.9,30.16,West,270,2.0,0.0,91,0.00,,OVC003,0.00,VWS V14.01,2013-07-17 09:36:00,
2013-07-17 05:40:00,71.5,69.1,30.16,West,270,2.0,0.0,92,0.00,,OVC003,0.00,VWS V14.01,2013-07-17 09:40:00,
2013-07-17 05:41:00,71.6,68.8,30.16,West,270,2.0,2.0,91,0.00,,OVC003,0.00,VWS V14.01,2013-07-17 09:41:00,
2013-07-17 05:45:00,71.5,69.1,30.16,West,270,2.0,0.0,92,0.00,,OVC003,0.00,VWS V14.01,2013-07-17 09:45:00,
2013-07-17 05:46:00,71.5,68.7,30.16,West,270,2.0,0.0,91,0.00,,OVC003,0.00,VWS V14.01,2013-07-17 09:46:00,
2013-07-17 05:50:00,71.4,69.0,30.16,West,270,2.0,0.0,92,0.00,,OVC003,0.00,VWS V14.01,2013-07-17 09:50:00,
2013-07-17 05:51:00,71.5,69.1,30.16,West,270,2.0,0.0,92,0.00,,OVC003,0.00,VWS V14.01,2013-07-17 09:51:00,
2013-07-17 05:55:00,71.4,69.0,30.16,West,270,2.0,0.0,92,0.00,,OVC003,0.00,VWS V14.01,2013-07-17 09:55:00,
2013-07-17 05:56:00,71.4,69.0,30.16,West,270,2.0,0.0,92,0.00,,OVC003,0.00,VWS V14.01,2013-07-17 09:56:00,
2013-07-17 06:00:00,71.3,68.9,30.16,West,270,2.0,0.0,92,0.00,,OVC003,0.00,VWS V14.01,2013-07-17 10:00:00,
2013-07-17 06:01:00,71.4,69.0,30.16,West,270,2.0,0.0,92,0.00,,OVC003,0.00,VWS V14.01,2013-07-17 10:01:00,
2013-07-17 06:05:00,71.3,68.9,30.16,West,270,2.0,0.0,92,0.00,,OVC003,0.00,VWS V14.01,2013-07-17 10:05:00,
2013-07-17 06:06:00,71.4,69.0,30.16,West,270,2.0,0.0,92,0.00,,OVC003,0.00,VWS V14.01,2013-07-17 10:06:00,
2013-07-17 06:10:00,71.3,68.9,30.16,West,270,2.0,0.0,92,0.00,,OVC003,0.00,VWS V14.01,2013-07-17 10:10:00,
2013-07-17 06:11:00,71.3,68.9,30.16,West,270,2.0,0.0,92,0.00,,OVC003,0.00,VWS V14.01,2013-07-17 10:11:00,
2013-07-17 06:15:00,71.3,68.9,30.16,West,270,2.0,0.0,92,0.00,,OVC003,0.00,VWS V14.01,2013-07-17 10:15:00,
2013-07-17 06:16:00,71.3,68.9,30.16,West,270,2.0,0.0,92,0.00,,OVC003,0.00,VWS V14.01,2013-07-17 10:16:00,
2013-07-17 06:20:00,71.3,68.9,30.16,West,270,2.0,0.0,92,0.00,,OVC003,0.00,VWS V14.01,2013-07-17 10:20:00,
2013-07-17 06:21:00,71.3,68.9,30.16,West,270,2.0,0.0,92,0.00,,OVC003,0.00,VWS V14.01,2013-07-17 10:21:00,
2013-07-17 06:25:00,71.3,68.9,30.16,West,270,2.0,0.0,92,0.00,,OVC003,0.00,VWS V14.01,2013-07-17 10:25:00,
2013-07-17 06:26:00,71.3,68.9,30.16,West,270,2.0,0.0,92,0.00,,OVC003,0.00,VWS V14.01,2013-07-17 10:26:00,
2013-07-17 06:30:00,71.3,68.9,30.17,West,270,2.0,0.0,92,0.00,,OVC003,0.00,VWS V14.01,2013-07-17 10:30:00,
2013-07-17 06:31:00,71.3,68.9,30.16,West,270,2.0,0.0,92,0.00,,OVC003,0.00,VWS V14.01,2013-07-17 10:31:00,
2013-07-17 06:35:00,71.3,68.9,30.17,West,270,2.0,0.0,92,0.00,,OVC003,0.00,VWS V14.01,2013-07-17 10:35:00,
2013-07-17 06:36:00,71.3,68.9,30.16,West,270,2.0,0.0,92,0.00,,OVC003,0.00,VWS V14.01,2013-07-17 10:36:00,
2013-07-17 06:40:00,71.3,68.9,30.17,West,270,2.0,0.0,92,0.00,,OVC003,0.00,VWS V14.01,2013-07-17 10:40:00,
2013-07-17 06:41:00,71.3,68.9,30.17,West,270,2.0,0.0,92,0.00,,OVC003,0.00,VWS V14.01,2013-07-17 10:41:00,
2013-07-17 06:45:00,71.4,69.0,30.17,West,270,2.0,0.0,92,0.00,,OVC003,0.00,VWS V14.01,2013-07-17 10:45:00,
2013-07-17 06:46:00,71.3,68.9,30.17,West,270,2.0,0.0,92,0.00,,OVC003,0.00,VWS V14.01,2013-07-17 10:46:00,
2013-07-17 06:50:00,71.5,69.1,30.17,West,270,2.0,0.0,92,0.00,,OVC003,0.00,VWS V14.01,2013-07-17 10:50:00,
2013-07-17 06:51:00,71.4,69.0,30.17,West,270,2.0,0.0,92,0.00,,OVC003,0.00,VWS V14.01,2013-07-17 10:51:00,
2013-07-17 06:55:00,71.5,69.1,30.17,West,270,2.0,0.0,92,0.00,,OVC003,0.00,VWS V14.01,2013-07-17 10:55:00,
2013-07-17 06:56:00,71.4,69.0,30.17,West,270,2.0,0.0,92,0.00,,OVC003,0.00,VWS V14.01,2013-07-17 10:56:00,
2013-07-17 07:00:00,71.6,69.2,30.17,West,270,2.0,0.0,92,0.00,,OVC003,0.00,VWS V14.01,2013-07-17 11:00:00,
2013-07-17 07:01:00,71.5,69.1,30.17,West,270,2.0,0.0,92,0.00,,OVC003,0.00,VWS V14.01,2013-07-17 11:01:00,
2013-07-17 07:05:00,71.6,69.2,30.17,West,270,2.0,0.0,92,0.00,,OVC003,0.00,VWS V14.01,2013-07-17 11:05:00,
2013-07-17 07:06:00,71.5,69.1,30.17,West,270,2.0,0.0,92,0.00,,OVC003,0.00,VWS V14.01,2013-07-17 11:06:00,
2013-07-17 07:10:00,71.7,69.3,30.17,West,270,2.0,0.0,92,0.00,,OVC003,0.00,VWS V14.01,2013-07-17 11:10:00,
2013-07-17 07:11:00,71.6,69.2,30.17,West,270,2.0,0.0,92,0.00,,OVC003,0.00,VWS V14.01,2013-07-17 11:11:00,
2013-07-17 07:15:00,71.7,69.3,30.17,West,270,2.0,2.0,92,0.00,,OVC003,0.00,VWS V14.01,2013-07-17 11:15:00,
2013-07-17 07:16:00,71.6,69.2,30.17,West,270,2.0,0.0,92,0.00,,OVC003,0.00,VWS V14.01,2013-07-17 11:16:00,
2013-07-17 07:20:00,71.9,69.4,30.17,West,270,2.0,0.0,92,0.00,,OVC003,0.00,VWS V14.01,2013-07-17 11:20:00,
2013-07-17 07:21:00,71.7,69.3,30.17,West,270,2.0,0.0,92,0.00,,OVC003,0.00,VWS V14.01,2013-07-17 11:21:00,
2013-07-17 07:25:00,72.0,69.6,30.17,West,270,2.0,0.0,92,0.00,,OVC003,0.00,VWS V14.01,2013-07-17 11:25:00,
2013-07-17 07:26:00,71.8,69.3,30.17,West,270,2.0,0.0,92,0.00,,OVC003,0.00,VWS V14.01,2013-07-17 11:26:00,
2013-07-17 07:30:00,72.1,69.7,30.17,West,270,2.0,0.0,92,0.00,,OVC003,0.00,VWS V14.01,2013-07-17 11:30:00,
2013-07-17 07:31:00,71.9,69.4,30.17,West,270,2.0,0.0,92,0.00,,OVC003,0.00,VWS V14.01,2013-07-17 11:31:00,
2013-07-17 07:35:00,72.3,69.8,30.17,West,270,2.0,2.0,92,0.00,,OVC003,0.00,VWS V14.01,2013-07-17 11:35:00,
2013-07-17 07:36:00,72.0,69.6,30.17,West,270,2.0,0.0,92,0.00,,OVC003,0.00,VWS V14.01,2013-07-17 11:36:00,
2013-07-17 07:40:00,72.5,70.1,30.17,West,270,2.0,3.0,92,0.00,,OVC003,0.00,VWS V14.01,2013-07-17 11:40:00,
2013-07-17 07:41:00,72.2,69.8,30.17,West,270,2.0,0.0,92,0.00,,OVC003,0.00,VWS V14.01,2013-07-17 11:41:00,
2013-07-17 07:45:00,72.8,70.3,30.18,West,270,2.0,2.0,92,0.00,,OVC003,0.00,VWS V14.01,2013-07-17 11:45:00,
2013-07-17 07:46:00,72.4,69.9,30.17,West,270,2.0,3.0,92,0.00,,OVC003,0.00,VWS V14.01,2013-07-17 11:46:00,
2013-07-17 07:50:00,73.1,70.6,30.18,West,270,2.0,2.0,92,0.00,,OVC003,0.00,VWS V14.01,2013-07-17 11:50:00,
2013-07-17 07:51:00,72.7,70.2,30.17,West,270,2.0,2.0,92,0.00,,OVC003,0.00,VWS V14.01,2013-07-17 11:51:00,
2013-07-17 07:55:00,73.5,70.7,30.18,West,270,2.0,2.0,91,0.00,,OVC003,0.00,VWS V14.01,2013-07-17 11:55:00,
2013-07-17 07:56:00,73.0,70.5,30.18,West,270,2.0,2.0,92,0.00,,OVC003,0.00,VWS V14.01,2013-07-17 11:56:00,
2013-07-17 08:00:00,73.9,71.1,30.17,West,270,2.0,2.0,91,0.00,,OVC003,0.00,VWS V14.01,2013-07-17 12:00:00,
2013-07-17 08:02:00,73.3,70.5,30.18,West,270,2.0,2.0,91,0.00,,OVC003,0.00,VWS V14.01,2013-07-17 12:02:00,
2013-07-17 08:05:00,74.2,71.4,30.17,West,270,2.0,3.0,91,0.00,,OVC003,0.00,VWS V14.01,2013-07-17 12:05:00,
2013-07-17 08:07:00,73.7,70.9,30.18,West,270,2.0,2.0,91,0.00,,OVC003,0.00,VWS V14.01,2013-07-17 12:07:00,
2013-07-17 08:10:00,74.7,71.6,30.17,West,270,2.0,2.0,90,0.00,,OVC003,0.00,VWS V14.01,2013-07-17 12:10:00,
2013-07-17 08:12:00,74.1,71.3,30.17,West,270,2.0,0.0,91,0.00,,OVC003,0.00,VWS V14.01,2013-07-17 12:12:00,
2013-07-17 08:15:00,75.1,72.0,30.17,West,270,2.0,2.0,90,0.00,,OVC003,0.00,VWS V14.01,2013-07-17 12:15:00,
2013-07-17 08:17:00,74.6,71.5,30.17,West,270,2.0,2.0,90,0.00,,OVC003,0.00,VWS V14.01,2013-07-17 12:17:00,
2013-07-17 08:20:00,75.5,72.0,30.17,West,270,2.0,2.0,89,0.00,,OVC003,0.00,VWS V14.01,2013-07-17 12:20:00,
2013-07-17 08:22:00,74.9,71.8,30.17,West,270,3.0,3.0,90,0.00,,OVC003,0.00,VWS V14.01,2013-07-17 12:22:00,
2013-07-17 08:25:00,76.0,72.5,30.17,West,270,2.0,2.0,89,0.00,,OVC003,0.00,VWS V14.01,2013-07-17 12:25:00,
2013-07-17 08:27:00,75.4,71.9,30.17,West,270,2.0,2.0,89,0.00,,OVC003,0.00,VWS V14.01,2013-07-17 12:27:00,
2013-07-17 08:30:00,76.5,72.7,30.17,West,270,2.0,2.0,88,0.00,,OVC003,0.00,VWS V14.01,2013-07-17 12:30:00,
2013-07-17 08:32:00,75.9,72.4,30.17,West,270,3.0,3.0,89,0.00,,OVC003,0.00,VWS V14.01,2013-07-17 12:32:00,
2013-07-17 08:35:00,77.0,73.2,30.17,WSW,248,2.0,4.0,88,0.00,,OVC003,0.00,VWS V14.01,2013-07-17 12:35:00,
2013-07-17 08:37:00,76.3,72.8,30.17,West,270,2.0,2.0,89,0.00,,OVC003,0.00,VWS V14.01,2013-07-17 12:37:00,
2013-07-17 08:40:00,77.5,73.3,30.17,WSW,248,4.0,4.0,87,0.00,,OVC003,0.00,VWS V14.01,2013-07-17 12:40:00,
2013-07-17 08:42:00,76.9,73.1,30.17,West,270,2.0,0.0,88,0.00,,OVC003,0.00,VWS V14.01,2013-07-17 12:42:00,
2013-07-17 08:45:00,78.0,73.5,30.17,WSW,249,2.0,2.0,86,0.00,,OVC003,0.00,VWS V14.01,2013-07-17 12:45:00,
2013-07-17 08:47:00,77.4,73.2,30.17,WSW,249,2.0,0.0,87,0.00,,OVC003,0.00,VWS V14.01,2013-07-17 12:47:00,
2013-07-17 08:50:00,78.4,73.9,30.17,WSW,248,2.0,2.0,86,0.00,,OVC003,0.00,VWS V14.01,2013-07-17 12:50:00,
2013-07-17 08:52:00,77.8,73.6,30.17,WSW,249,2.0,2.0,87,0.00,,OVC003,0.00,VWS V14.01,2013-07-17 12:52:00,
2013-07-17 08:55:00,78.7,74.2,30.17,WSW,248,2.0,0.0,86,0.00,,OVC003,0.00,VWS V14.01,2013-07-17 12:55:00,
2013-07-17 08:57:00,78.2,73.7,30.17,WSW,249,2.0,2.0,86,0.00,,OVC003,0.00,VWS V14.01,2013-07-17 12:57:00,
2013-07-17 09:00:00,78.9,74.0,30.17,WSW,249,3.0,3.0,85,0.00,,OVC003,0.00,VWS V14.01,2013-07-17 13:00:00,
2013-07-17 09:02:00,78.5,74.0,30.17,WSW,248,2.0,0.0,86,0.00,,OVC003,0.00,VWS V14.01,2013-07-17 13:02:00,
2013-07-17 09:05:00,79.3,74.4,30.17,WSW,249,2.0,2.0,85,0.00,,OVC003,0.00,VWS V14.01,2013-07-17 13:05:00,
2013-07-17 09:07:00,78.8,73.9,30.17,WSW,248,2.0,2.0,85,0.00,,OVC003,0.00,VWS V14.01,2013-07-17 13:07:00,
2013-07-17 09:10:00,79.6,74.3,30.17,WSW,254,2.0,2.0,84,0.00,,OVC003,0.00,VWS V14.01,2013-07-17 13:10:00,
2013-07-17 09:12:00,79.2,74.3,30.17,WSW,249,2.0,2.0,85,0.00,,OVC003,0.00,VWS V14.01,2013-07-17 13:12:00,
2013-07-17 09:15:00,80.1,74.8,30.17,West,266,2.0,3.0,84,0.00,,OVC003,0.00,VWS V14.01,2013-07-17 13:15:00,
2013-07-17 09:17:00,79.5,74.6,30.17,WSW,254,4.0,4.0,85,0.00,,OVC003,0.00,VWS V14.01,2013-07-17 13:17:00,
2013-07-17 09:20:00,80.5,74.9,30.17,West,266,3.0,3.0,83,0.00,,OVC003,0.00,VWS V14.01,2013-07-17 13:20:00,
2013-07-17 09:22:00,80.0,74.7,30.17,West,266,4.0,4.0,84,0.00,,OVC003,0.00,VWS V14.01,2013-07-17 13:22:00,
2013-07-17 09:25:00,81.0,75.3,30.17,West,266,2.0,2.0,83,0.00,,OVC003,0.00,VWS V14.01,2013-07-17 13:25:00,
2013-07-17 09:27:00,80.4,74.8,30.17,West,266,2.0,0.0,83,0.00,,OVC003,0.00,VWS V14.01,2013-07-17 13:27:00,
2013-07-17 09:30:00,81.3,75.3,30.17,West,266,2.0,2.0,82,0.00,,OVC003,0.00,VWS V14.01,2013-07-17 13:30:00,
2013-07-17 09:32:00,80.9,75.3,30.17,West,266,2.0,2.0,83,0.00,,OVC003,0.00,VWS V14.01,2013-07-17 13:32:00,
2013-07-17 09:35:00,81.7,75.7,30.17,West,266,2.0,2.0,82,0.00,,OVC003,0.00,VWS V14.01,2013-07-17 13:35:00,
2013-07-17 09:37:00,81.2,75.2,30.17,West,266,2.0,2.0,82,0.00,,OVC003,0.00,VWS V14.01,2013-07-17 13:37:00,
2013-07-17 09:40:00,81.9,75.5,30.17,West,266,2.0,2.0,81,0.00,,OVC003,0.00,VWS V14.01,2013-07-17 13:40:00,
2013-07-17 09:42:00,81.6,75.6,30.17,West,266,2.0,2.0,82,0.00,,OVC003,0.00,VWS V14.01,2013-07-17 13:42:00,
2013-07-17 09:45:00,82.3,75.5,30.16,West,266,2.0,0.0,80,0.00,,OVC003,0.00,VWS V14.01,2013-07-17 13:45:00,
2013-07-17 09:47:00,81.9,75.5,30.17,West,266,2.0,2.0,81,0.00,,OVC003,0.00,VWS V14.01,2013-07-17 13:47:00,
2013-07-17 09:50:00,82.6,75.8,30.16,West,266,2.0,3.0,80,0.00,,OVC003,0.00,VWS V14.01,2013-07-17 13:50:00,
2013-07-17 09:52:00,82.2,75.4,30.17,West,266,2.0,0.0,80,0.00,,OVC003,0.00,VWS V14.01,2013-07-17 13:52:00,
2013-07-17 09:55:00,82.9,76.1,30.16,West,266,2.0,2.0,80,0.00,,OVC003,0.00,VWS V14.01,2013-07-17 13:55:00,
2013-07-17 09:57:00,82.5,75.7,30.16,West,266,4.0,4.0,80,0.00,,OVC003,0.00,VWS V14.01,2013-07-17 13:57:00,
2013-07-17 10:00:00,83.2,75.6,30.16,West,266,2.0,2.0,78,0.00,,OVC003,0.00,VWS V14.01,2013-07-17 14:00:00,
2013-07-17 10:02:00,82.8,75.6,30.16,West,266,2.0,2.0,79,0.00,,OVC003,0.00,VWS V14.01,2013-07-17 14:02:00,
2013-07-17 10:05:00,83.6,75.6,30.16,West,266,5.0,5.0,77,0.00,,OVC003,0.00,VWS V14.01,2013-07-17 14:05:00,
2013-07-17 10:07:00,83.1,75.5,30.16,West,266,2.0,2.0,78,0.00,,OVC003,0.00,VWS V14.01,2013-07-17 14:07:00,
2013-07-17 10:10:00,84.0,76.0,30.16,West,266,2.0,3.0,77,0.00,,OVC003,0.00,VWS V14.01,2013-07-17 14:10:00,
2013-07-17 10:12:00,83.6,76.0,30.16,West,266,2.0,2.0,78,0.00,,OVC003,0.00,VWS V14.01,2013-07-17 14:12:00,
2013-07-17 10:15:00,84.4,76.4,30.16,West,263,3.0,3.0,77,0.00,,OVC003,0.00,VWS V14.01,2013-07-17 14:15:00,
2013-07-17 10:17:00,83.9,75.9,30.16,West,266,2.0,3.0,77,0.00,,OVC003,0.00,VWS V14.01,2013-07-17 14:17:00,
2013-07-17 10:20:00,84.6,76.6,30.16,West,263,2.0,2.0,77,0.00,,OVC003,0.00,VWS V14.01,2013-07-17 14:20:00,
2013-07-17 10:22:00,84.3,76.3,30.16,West,263,2.0,3.0,77,0.00,,OVC003,0.00,VWS V14.01,2013-07-17 14:22:00,
2013-07-17 10:25:00,84.7,75.9,30.16,West,281,3.0,4.0,75,0.00,,OVC003,0.00,VWS V14.01,2013-07-17 14:25:00,
2013-07-17 10:27:00,84.5,76.5,30.16,West,263,2.0,2.0,77,0.00,,OVC003,0.00,VWS V14.01,2013-07-17 14:27:00,
2013-07-17 10:30:00,84.9,76.1,30.16,West,281,2.0,2.0,75,0.00,,OVC003,0.00,VWS V14.01,2013-07-17 14:30:00,
2013-07-17 10:32:00,84.7,75.9,30.16,West,281,2.0,4.0,75,0.00,,OVC003,0.00,VWS V14.01,2013-07-17 14:32:00,
2013-07-17 10:35:00,85.2,76.4,30.16,West,281,3.0,3.0,75,0.00,,OVC003,0.00,VWS V14.01,2013-07-17 14:35:00,
2013-07-17 10:37:00,84.8,76.0,30.16,West,281,2.0,2.0,75,0.00,,OVC003,0.00,VWS V14.01,2013-07-17 14:37:00,
2013-07-17 10:40:00,85.4,76.2,30.16,WSW,237,2.0,7.0,74,0.00,,OVC003,0.00,VWS V14.01,2013-07-17 14:40:00,
2013-07-17 10:42:00,85.1,76.3,30.16,West,281,2.0,2.0,75,0.00,,OVC003,0.00,VWS V14.01,2013-07-17 14:42:00,
2013-07-17 10:45:00,85.6,76.0,30.16,WSW,245,2.0,2.0,73,0.00,,OVC003,0.00,VWS V14.01,2013-07-17 14:45:00,
2013-07-17 10:47:00,85.4,76.2,30.16,WSW,237,2.0,7.0,74,0.00,,OVC003,0.00,VWS V14.01,2013-07-17 14:47:00,
2013-07-17 10:50:00,85.8,76.2,30.16,WSW,249,2.0,2.0,73,0.00,,OVC003,0.00,VWS V14.01,2013-07-17 14:50:00,
2013-07-17 10:52:00,85.6,76.4,30.16,WSW,238,2.0,2.0,74,0.00,,OVC003,0.00,VWS V14.01,2013-07-17 14:52:00,
2013-07-17 10:55:00,86.0,76.3,30.16,WSW,249,2.0,2.0,73,0.00,,OVC003,0.00,VWS V14.01,2013-07-17 14:55:00,
2013-07-17 10:57:00,85.7,76.1,30.16,WSW,248,2.0,2.0,73,0.00,,OVC003,0.00,VWS V14.01,2013-07-17 14:57:00,
2013-07-17 11:00:00,86.2,76.1,30.15,WSW,248,2.0,2.0,72,0.00,,OVC003,0.00,VWS V14.01,2013-07-17 15:00:00,
2013-07-17 11:02:00,86.0,76.8,30.16,WSW,248,2.0,2.0,74,0.00,,OVC003,0.00,VWS V14.01,2013-07-17 15:02:00,
2013-07-17 11:05:00,86.3,76.2,30.15,SW,221,4.0,4.0,72,0.00,,OVC003,0.00,VWS V14.01,2013-07-17 15:05:00,
2013-07-17 11:07:00,86.1,76.0,30.15,WSW,249,2.0,2.0,72,0.00,,OVC003,0.00,VWS V14.01,2013-07-17 15:07:00,
2013-07-17 11:10:00,86.6,76.5,30.15,SW,221,4.0,4.0,72,0.00,,OVC003,0.00,VWS V14.01,2013-07-17 15:10:00,
2013-07-17 11:12:00,86.3,76.2,30.15,WSW,248,2.0,4.0,72,0.00,,OVC003,0.00,VWS V14.01,2013-07-17 15:12:00,
2013-07-17 11:15:00,86.7,76.2,30.15,West,271,2.0,3.0,71,0.00,,OVC003,0.00,VWS V14.01,2013-07-17 15:15:00,
2013-07-17 11:17:00,86.5,76.4,30.15,SW,221,2.0,3.0,72,0.00,,OVC003,0.00,VWS V14.01,2013-07-17 15:17:00,
2013-07-17 11:20:00,86.8,76.3,30.15,West,271,2.0,4.0,71,0.00,,OVC003,0.00,VWS V14.01,2013-07-17 15:20:00,
2013-07-17 11:22:00,86.7,76.2,30.15,West,271,2.0,3.0,71,0.00,,OVC003,0.00,VWS V14.01,2013-07-17 15:22:00,
2013-07-17 11:25:00,87.0,76.5,30.15,SW,236,2.0,4.0,71,0.00,,OVC003,0.00,VWS V14.01,2013-07-17 15:25:00,
2013-07-17 11:28:00,86.8,76.3,30.15,West,271,2.0,4.0,71,0.00,,OVC003,0.00,VWS V14.01,2013-07-17 15:28:00,
2013-07-17 11:30:00,87.1,76.6,30.15,SW,236,2.0,0.0,71,0.00,,OVC003,0.00,VWS V14.01,2013-07-17 15:30:00,
2013-07-17 11:33:00,86.9,76.4,30.15,SW,236,4.0,4.0,71,0.00,,OVC003,0.00,VWS V14.01,2013-07-17 15:33:00,
2013-07-17 11:35:00,87.3,76.8,30.15,WSW,238,2.0,2.0,71,0.00,,OVC003,0.00,VWS V14.01,2013-07-17 15:35:00,
2013-07-17 11:38:00,87.1,76.6,30.15,SW,236,2.0,0.0,71,0.00,,OVC003,0.00,VWS V14.01,2013-07-17 15:38:00,
2013-07-17 11:40:00,87.5,76.1,30.15,West,278,2.0,5.0,69,0.00,,OVC003,0.00,VWS V14.01,2013-07-17 15:40:00,
2013-07-17 11:43:00,87.3,76.3,30.15,WSW,238,3.0,3.0,70,0.00,,OVC003,0.00,VWS V14.01,2013-07-17 15:43:00,
2013-07-17 11:45:00,87.7,75.8,30.15,ENE,62,2.0,4.0,68,0.00,,OVC003,0.00,VWS V14.01,2013-07-17 15:45:00,
2013-07-17 11:48:00,87.5,75.6,30.15,West,278,2.0,5.0,68,0.00,,OVC003,0.00,VWS V14.01,2013-07-17 15:48:00,
2013-07-17 11:50:00,87.9,76.5,30.15,NE,42,2.0,2.0,69,0.00,,OVC003,0.00,VWS V14.01,2013-07-17 15:50:00,
2013-07-17 11:53:00,87.7,75.8,30.15,ENE,62,2.0,4.0,68,0.00,,OVC003,0.00,VWS V14.01,2013-07-17 15:53:00,
2013-07-17 11:55:00,87.9,75.6,30.15,West,274,2.0,4.0,67,0.00,,OVC003,0.00,VWS V14.01,2013-07-17 15:55:00,
2013-07-17 11:58:00,87.9,76.5,30.15,NE,41,3.0,3.0,69,0.00,,OVC003,0.00,VWS V14.01,2013-07-17 15:58:00,
2013-07-17 12:00:00,88.0,75.7,30.15,WSW,258,2.0,5.0,67,0.00,,OVC003,0.00,VWS V14.01,2013-07-17 16:00:00,
2013-07-17 12:03:00,87.9,75.6,30.15,West,274,2.0,4.0,67,0.00,,OVC003,0.00,VWS V14.01,2013-07-17 16:03:00,
2013-07-17 12:05:00,88.2,76.3,30.15,WSW,258,2.0,2.0,68,0.00,,OVC003,0.00,VWS V14.01,2013-07-17 16:05:00,
2013-07-17 12:08:00,88.0,75.7,30.15,WSW,257,2.0,5.0,67,0.00,,OVC003,0.00,VWS V14.01,2013-07-17 16:08:00,
2013-07-17 12:10:00,88.3,76.0,30.15,WNW,284,3.0,4.0,67,0.00,,OVC003,0.00,VWS V14.01,2013-07-17 16:10:00,
2013-07-17 12:13:00,88.2,76.3,30.15,WSW,258,2.0,2.0,68,0.00,,OVC003,0.00,VWS V14.01,2013-07-17 16:13:00,
2013-07-17 12:15:00,88.4,75.6,30.15,WNW,284,2.0,2.0,66,0.00,,OVC003,0.00,VWS V14.01,2013-07-17 16:15:00,
2013-07-17 12:18:00,88.3,76.0,30.15,WNW,283,2.0,4.0,67,0.00,,OVC003,0.00,VWS V14.01,2013-07-17 16:18:00,
2013-07-17 12:20:00,88.5,75.2,30.15,West,274,2.0,4.0,65,0.00,,OVC003,0.00,VWS V14.01,2013-07-17 16:20:00,
2013-07-17 12:23:00,88.4,76.1,30.15,WNW,284,2.0,2.0,67,0.00,,OVC003,0.00,VWS V14.01,2013-07-17 16:23:00,
2013-07-17 12:25:00,88.7,75.0,30.15,WSW,249,2.0,4.0,64,0.00,,OVC003,0.00,VWS V14.01,2013-07-17 16:25:00,
2013-07-17 12:28:00,88.5,75.2,30.15,West,274,2.0,4.0,65,0.00,,OVC003,0.00,VWS V14.01,2013-07-17 16:28:00,
2013-07-17 12:30:00,88.8,75.1,30.15,WNW,293,8.0,10.0,64,0.00,,OVC003,0.00,VWS V14.01,2013-07-17 16:30:00,
2013-07-17 12:33:00,88.7,75.0,30.15,WSW,249,2.0,4.0,64,0.00,,OVC003,0.00,VWS V14.01,2013-07-17 16:33:00,
2013-07-17 12:35:00,89.0,75.2,30.15,WNW,287,3.0,9.0,64,0.00,,OVC003,0.00,VWS V14.01,2013-07-17 16:35:00,
2013-07-17 12:38:00,88.8,75.5,30.15,WSW,248,2.0,10.0,65,0.00,,OVC003,0.00,VWS V14.01,2013-07-17 16:38:00,
2013-07-17 12:40:00,89.2,74.5,30.15,WSW,248,2.0,4.0,62,0.00,,OVC003,0.00,VWS V14.01,2013-07-17 16:40:00,
2013-07-17 12:43:00,89.0,75.2,30.15,WSW,247,2.0,9.0,64,0.00,,OVC003,0.00,VWS V14.01,2013-07-17 16:43:00,
2013-07-17 12:45:00,89.2,75.4,30.14,West,259,2.0,3.0,64,0.00,,OVC003,0.00,VWS V14.01,2013-07-17 16:45:00,
2013-07-17 12:48:00,89.1,74.4,30.15,WSW,248,2.0,4.0,62,0.00,,OVC003,0.00,VWS V14.01,2013-07-17 16:48:00,
2013-07-17 12:50:00,89.2,75.9,30.14,NW,317,5.0,5.0,65,0.00,,OVC003,0.00,VWS V14.01,2013-07-17 16:50:00,
2013-07-17 12:53:00,89.2,75.4,30.14,West,259,3.0,3.0,64,0.00,,OVC003,0.00,VWS V14.01,2013-07-17 16:53:00,
2013-07-17 12:55:00,89.4,75.2,30.14,West,260,6.0,6.0,63,0.00,,OVC003,0.00,VWS V14.01,2013-07-17 16:55:00,
2013-07-17 12:58:00,89.2,75.9,30.14,NW,317,5.0,5.0,65,0.00,,OVC003,0.00,VWS V14.01,2013-07-17 16:58:00,
2013-07-17 13:00:00,89.6,75.3,30.14,WSW,255,2.0,4.0,63,0.00,,OVC003,0.00,VWS V14.01,2013-07-17 17:00:00,
2013-07-17 13:03:00,89.3,75.5,30.14,West,272,3.0,4.0,64,0.00,,OVC003,0.00,VWS V14.01,2013-07-17 17:03:00,
2013-07-17 13:05:00,89.7,75.9,30.14,WSW,255,2.0,2.0,64,0.00,,OVC003,0.00,VWS V14.01,2013-07-17 17:05:00,
2013-07-17 13:08:00,89.6,75.3,30.14,WSW,255,2.0,4.0,63,0.00,,OVC003,0.00,VWS V14.01,2013-07-17 17:08:00,
2013-07-17 13:10:00,89.6,75.8,30.14,WSW,255,2.0,2.0,64,0.00,,OVC003,0.00,VWS V14.01,2013-07-17 17:10:00,
2013-07-17 13:13:00,89.7,75.9,30.14,WSW,255,2.0,2.0,64,0.00,,OVC003,0.00,VWS V14.01,2013-07-17 17:13:00,
2013-07-17 13:15:00,89.4,75.6,30.14,WSW,255,2.0,2.0,64,0.00,,OVC003,0.00,VWS V14.01,2013-07-17 17:15:00,
2013-07-17 13:18:00,89.6,75.8,30.14,WSW,255,2.0,2.0,64,0.00,,OVC003,0.00,VWS V14.01,2013-07-17 17:18:00,
2013-07-17 13:20:00,89.1,75.3,30.14,WSW,255,2.0,2.0,64,0.00,,OVC003,0.00,VWS V14.01,2013-07-17 17:20:00,
2013-07-17 13:23:00,89.4,75.6,30.14,WSW,255,2.0,2.0,64,0.00,,OVC003,0.00,VWS V14.01,2013-07-17 17:23:00,
2013-07-17 13:25:00,88.9,75.2,30.14,WSW,255,2.0,2.0,64,0.00,,OVC003,0.00,VWS V14.01,2013-07-17 17:25:00,
2013-07-17 13:28:00,89.1,75.3,30.14,WSW,255,2.0,2.0,64,0.00,,OVC003,0.00,VWS V14.01,2013-07-17 17:28:00,
2013-07-17 13:30:00,89.0,75.2,30.13,WSW,255,3.0,3.0,64,0.00,,OVC003,0.00,VWS V14.01,2013-07-17 17:30:00,
2013-07-17 13:33:00,88.9,75.2,30.14,WSW,255,2.0,2.0,64,0.00,,OVC003,0.00,VWS V14.01,2013-07-17 17:33:00,
2013-07-17 13:35:00,89.3,75.5,30.13,WSW,255,2.0,2.0,64,0.00,,OVC003,0.00,VWS V14.01,2013-07-17 17:35:00,
2013-07-17 13:38:00,89.0,75.2,30.13,WSW,255,2.0,3.0,64,0.00,,OVC003,0.00,VWS V14.01,2013-07-17 17:38:00,
2013-07-17 13:40:00,89.5,75.2,30.13,WSW,255,2.0,2.0,63,0.00,,OVC003,0.00,VWS V14.01,2013-07-17 17:40:00,
2013-07-17 13:43:00,89.3,75.5,30.13,WSW,255,2.0,2.0,64,0.00,,OVC003,0.00,VWS V14.01,2013-07-17 17:43:00,
2013-07-17 13:45:00,89.7,75.4,30.13,West,271,2.0,4.0,63,0.00,,OVC003,0.00,VWS V14.01,2013-07-17 17:45:00,
2013-07-17 13:48:00,89.5,75.2,30.13,WSW,255,2.0,2.0,63,0.00,,OVC003,0.00,VWS V14.01,2013-07-17 17:48:00,
2013-07-17 13:50:00,90.1,76.8,30.13,West,271,3.0,3.0,65,0.00,,OVC003,0.00,VWS V14.01,2013-07-17 17:50:00,
2013-07-17 13:53:00,89.7,75.4,30.13,West,271,2.0,4.0,63,0.00,,OVC003,0.00,VWS V14.01,2013-07-17 17:53:00,
2013-07-17 13:55:00,90.3,75.0,30.13,West,271,2.0,2.0,61,0.00,,OVC003,0.00,VWS V14.01,2013-07-17 17:55:00,
2013-07-17 13:58:00,90.1,76.8,30.13,West,271,3.0,3.0,65,0.00,,OVC003,0.00,VWS V14.01,2013-07-17 17:58:00,
2013-07-17 14:00:00,90.5,75.7,30.12,West,271,2.0,2.0,62,0.00,,OVC003,0.00,VWS V14.01,2013-07-17 18:00:00,
2013-07-17 14:03:00,90.3,75.0,30.13,West,271,2.0,2.0,61,0.00,,OVC003,0.00,VWS V14.01,2013-07-17 18:03:00,
2013-07-17 14:05:00,90.5,75.2,30.12,West,271,2.0,0.0,61,0.00,,OVC003,0.00,VWS V14.01,2013-07-17 18:05:00,
2013-07-17 14:08:00,90.5,75.7,30.12,West,271,2.0,2.0,62,0.00,,OVC003,0.00,VWS V14.01,2013-07-17 18:08:00,
2013-07-17 14:10:00,90.5,76.2,30.12,West,272,4.0,4.0,63,0.00,,OVC003,0.00,VWS V14.01,2013-07-17 18:10:00,
2013-07-17 14:13:00,90.5,75.2,30.12,West,271,2.0,0.0,61,0.00,,OVC003,0.00,VWS V14.01,2013-07-17 18:13:00,
2013-07-17 14:15:00,90.5,74.2,30.11,SW,222,2.0,4.0,59,0.00,,OVC003,0.00,VWS V14.01,2013-07-17 18:15:00,
2013-07-17 14:18:00,90.5,76.2,30.12,West,272,4.0,4.0,63,0.00,,OVC003,0.00,VWS V14.01,2013-07-17 18:18:00,
2013-07-17 14:20:00,90.6,74.8,30.11,SW,222,2.0,2.0,60,0.00,,OVC003,0.00,VWS V14.01,2013-07-17 18:20:00,
2013-07-17 14:23:00,90.5,74.7,30.11,SW,221,2.0,0.0,60,0.00,,OVC003,0.00,VWS V14.01,2013-07-17 18:23:00,
2013-07-17 14:25:00,90.7,75.4,30.11,SW,222,2.0,3.0,61,0.00,,OVC003,0.00,VWS V14.01,2013-07-17 18:25:00,
2013-07-17 14:28:00,90.6,75.3,30.11,SW,221,2.0,0.0,61,0.00,,OVC003,0.00,VWS V14.01,2013-07-17 18:28:00,
2013-07-17 14:30:00,90.6,74.8,30.11,NW,312,3.0,4.0,60,0.00,,OVC003,0.00,VWS V14.01,2013-07-17 18:30:00,
2013-07-17 14:34:00,90.7,75.4,30.11,SW,222,3.0,3.0,61,0.00,,OVC003,0.00,VWS V14.01,2013-07-17 18:34:00,
2013-07-17 14:35:00,90.8,75.5,30.11,NW,312,2.0,3.0,61,0.00,,OVC003,0.00,VWS V14.01,2013-07-17 18:35:00,
2013-07-17 14:39:00,90.6,74.8,30.11,NW,312,2.0,2.0,60,0.00,,OVC003,0.00,VWS V14.01,2013-07-17 18:39:00,
2013-07-17 14:40:00,91.1,75.3,30.11,WSW,251,3.0,4.0,60,0.00,,OVC003,0.00,VWS V14.01,2013-07-17 18:40:00,
2013-07-17 14:44:00,90.8,75.5,30.11,NW,312,2.0,0.0,61,0.00,,OVC003,0.00,VWS V14.01,2013-07-17 18:44:00,
2013-07-17 14:45:00,91.1,74.8,30.10,WSW,258,3.0,4.0,59,0.00,,OVC003,0.00,VWS V14.01,2013-07-17 18:45:00,
2013-07-17 14:49:00,91.1,75.3,30.11,WSW,251,2.0,2.0,60,0.00,,OVC003,0.00,VWS V14.01,2013-07-17 18:49:00,
2013-07-17 14:50:00,91.3,75.5,30.10,WSW,243,3.0,4.0,60,0.00,,OVC003,0.00,VWS V14.01,2013-07-17 18:50:00,
2013-07-17 14:54:00,91.1,74.8,30.10,WSW,257,2.0,2.0,59,0.00,,OVC003,0.00,VWS V14.01,2013-07-17 18:54:00,
2013-07-17 14:55:00,91.5,74.7,30.10,West,270,2.0,6.0,58,0.00,,OVC003,0.00,VWS V14.01,2013-07-17 18:55:00,
2013-07-17 14:59:00,91.3,75.5,30.10,WSW,243,2.0,2.0,60,0.00,,OVC003,0.00,VWS V14.01,2013-07-17 18:59:00,
2013-07-17 15:00:00,91.8,74.9,30.10,ESE,121,3.0,4.0,58,0.00,,OVC003,0.00,VWS V14.01,2013-07-17 19:00:00,
2013-07-17 15:04:00,91.6,75.2,30.10,West,270,2.0,0.0,59,0.00,,OVC003,0.00,VWS V14.01,2013-07-17 19:04:00,
2013-07-17 15:05:00,91.8,75.9,30.10,ESE,122,4.0,4.0,60,0.00,,OVC003,0.00,VWS V14.01,2013-07-17 19:05:00,
2013-07-17 15:09:00,91.8,74.9,30.10,ESE,121,2.0,2.0,58,0.00,,OVC003,0.00,VWS V14.01,2013-07-17 19:09:00,
2013-07-17 15:10:00,91.8,74.4,30.10,West,270,3.0,3.0,57,0.00,,OVC003,0.00,VWS V14.01,2013-07-17 19:10:00,
2013-07-17 15:14:00,91.8,75.9,30.10,ESE,122,4.0,4.0,60,0.00,,OVC003,0.00,VWS V14.01,2013-07-17 19:14:00,
2013-07-17 15:15:00,92.0,75.1,30.09,West,268,2.0,2.0,58,0.00,,OVC003,0.00,VWS V14.01,2013-07-17 19:15:00,
2013-07-17 15:19:00,91.8,74.4,30.10,West,270,2.0,2.0,57,0.00,,OVC003,0.00,VWS V14.01,2013-07-17 19:19:00,
2013-07-17 15:20:00,91.9,74.0,30.09,West,268,2.0,7.0,56,0.00,,OVC003,0.00,VWS V14.01,2013-07-17 19:20:00,
2013-07-17 15:24:00,92.0,75.1,30.09,West,268,2.0,0.0,58,0.00,,OVC003,0.00,VWS V14.01,2013-07-17 19:24:00,
2013-07-17 15:25:00,91.7,74.8,30.09,West,269,2.0,2.0,58,0.00,,OVC003,0.00,VWS V14.01,2013-07-17 19:25:00,
2013-07-17 15:29:00,91.9,74.0,30.09,West,269,2.0,0.0,56,0.00,,OVC003,0.00,VWS V14.01,2013-07-17 19:29:00,
2013-07-17 15:30:00,91.3,74.5,30.10,West,269,2.0,3.0,58,0.00,,OVC003,0.00,VWS V14.01,2013-07-17 19:30:00,
2013-07-17 15:34:00,91.7,74.8,30.09,West,269,2.0,2.0,58,0.00,,OVC003,0.00,VWS V14.01,2013-07-17 19:34:00,
2013-07-17 15:35:00,90.8,75.0,30.10,West,281,2.0,3.0,60,0.00,,OVC003,0.00,VWS V14.01,2013-07-17 19:35:00,
2013-07-17 15:39:00,91.2,74.4,30.10,West,271,4.0,4.0,58,0.00,,OVC003,0.00,VWS V14.01,2013-07-17 19:39:00,
2013-07-17 15:40:00,90.3,75.5,30.10,West,280,2.0,2.0,62,0.00,,OVC003,0.00,VWS V14.01,2013-07-17 19:40:00,
2013-07-17 15:44:00,90.8,74.5,30.10,West,281,2.0,2.0,59,0.00,,OVC003,0.00,VWS V14.01,2013-07-17 19:44:00,
2013-07-17 15:45:00,90.3,76.5,30.09,West,281,2.0,2.0,64,0.00,,OVC003,0.00,VWS V14.01,2013-07-17 19:45:00,
2013-07-17 15:49:00,90.3,75.5,30.10,West,281,2.0,0.0,62,0.00,,OVC003,0.00,VWS V14.01,2013-07-17 19:49:00,
2013-07-17 15:50:00,90.5,75.7,30.09,NE,47,3.0,3.0,62,0.00,,OVC003,0.00,VWS V14.01,2013-07-17 19:50:00,
2013-07-17 15:54:00,90.3,76.5,30.09,West,280,3.0,3.0,64,0.00,,OVC003,0.00,VWS V14.01,2013-07-17 19:54:00,
2013-07-17 15:55:00,89.9,74.7,30.09,NE,47,2.0,3.0,61,0.00,,OVC003,0.00,VWS V14.01,2013-07-17 19:55:00,
2013-07-17 15:59:00,90.5,75.7,30.09,NE,47,2.0,2.0,62,0.00,,OVC003,0.00,VWS V14.01,2013-07-17 19:59:00,
2013-07-17 16:00:00,88.9,74.2,30.09,NE,47,2.0,2.0,62,0.00,,OVC003,0.00,VWS V14.01,2013-07-17 20:00:00,
2013-07-17 16:04:00,89.9,74.7,30.09,NE,47,2.0,0.0,61,0.00,,OVC003,0.00,VWS V14.01,2013-07-17 20:04:00,
2013-07-17 16:05:00,88.5,74.8,30.09,NE,47,2.0,2.0,64,0.00,,OVC003,0.00,VWS V14.01,2013-07-17 20:05:00,
2013-07-17 16:09:00,88.8,74.6,30.09,NE,47,3.0,3.0,63,0.00,,OVC003,0.00,VWS V14.01,2013-07-17 20:09:00,
2013-07-17 16:10:00,88.4,73.7,30.09,NE,47,2.0,2.0,62,0.00,,OVC003,0.00,VWS V14.01,2013-07-17 20:10:00,
2013-07-17 16:14:00,88.4,74.7,30.09,NE,47,2.0,2.0,64,0.00,,OVC003,0.00,VWS V14.01,2013-07-17 20:14:00,
2013-07-17 16:15:00,88.9,74.7,30.08,NE,47,2.0,0.0,63,0.00,,OVC003,0.00,VWS V14.01,2013-07-17 20:15:00,
2013-07-17 16:19:00,88.4,74.2,30.09,NE,47,2.0,0.0,63,0.00,,OVC003,0.00,VWS V14.01,2013-07-17 20:19:00,
2013-07-17 16:20:00,89.6,74.9,30.08,NE,47,2.0,2.0,62,0.00,,OVC003,0.00,VWS V14.01,2013-07-17 20:20:00,
2013-07-17 16:24:00,89.0,75.2,30.08,NE,47,2.0,2.0,64,0.00,,OVC003,0.00,VWS V14.01,2013-07-17 20:24:00,
2013-07-17 16:25:00,90.2,75.9,30.08,NE,47,2.0,2.0,63,0.00,,OVC003,0.00,VWS V14.01,2013-07-17 20:25:00,
2013-07-17 16:29:00,89.7,75.4,30.08,NE,47,2.0,0.0,63,0.00,,OVC003,0.00,VWS V14.01,2013-07-17 20:29:00,
2013-07-17 16:30:00,90.8,76.0,30.08,NE,47,2.0,2.0,62,0.00,,OVC003,0.00,VWS V14.01,2013-07-17 20:30:00,
2013-07-17 16:34:00,90.3,76.0,30.08,NE,47,2.0,0.0,63,0.00,,OVC003,0.00,VWS V14.01,2013-07-17 20:34:00,
2013-07-17 16:35:00,90.7,76.4,30.08,NE,47,2.0,2.0,63,0.00,,OVC003,0.00,VWS V14.01,2013-07-17 20:35:00,
2013-07-17 16:39:00,90.8,76.0,30.08,NE,47,2.0,0.0,62,0.00,,OVC003,0.00,VWS V14.01,2013-07-17 20:39:00,
2013-07-17 16:40:00,90.0,76.7,30.08,NE,47,2.0,0.0,65,0.00,,OVC003,0.00,VWS V14.01,2013-07-17 20:40:00,
2013-07-17 16:44:00,90.5,76.2,30.08,NE,47,2.0,0.0,63,0.00,,OVC003,0.00,VWS V14.01,2013-07-17 20:44:00,
2013-07-17 16:45:00,89.9,77.5,30.08,NE,47,2.0,2.0,67,0.00,,OVC003,0.00,VWS V14.01,2013-07-17 20:45:00,
2013-07-17 16:49:00,89.9,76.1,30.08,NE,47,2.0,0.0,64,0.00,,OVC003,0.00,VWS V14.01,2013-07-17 20:49:00,
2013-07-17 16:50:00,89.9,77.5,30.08,NE,47,2.0,2.0,67,0.00,,OVC003,0.00,VWS V14.01,2013-07-17 20:50:00,
2013-07-17 16:54:00,89.9,77.5,30.08,NE,47,2.0,0.0,67,0.00,,OVC003,0.00,VWS V14.01,2013-07-17 20:54:00,
2013-07-17 16:55:00,89.9,76.6,30.08,NE,47,2.0,2.0,65,0.00,,OVC003,0.00,VWS V14.01,2013-07-17 20:55:00,
2013-07-17 16:59:00,89.9,77.5,30.08,NE,47,2.0,0.0,67,0.00,,OVC003,0.00,VWS V14.01,2013-07-17 20:59:00,
2013-07-17 17:00:00,89.9,77.5,30.07,NE,47,2.0,0.0,67,0.00,,OVC003,0.00,VWS V14.01,2013-07-17 21:00:00,
2013-07-17 17:04:00,89.9,76.6,30.08,NE,47,2.0,0.0,65,0.00,,OVC003,0.00,VWS V14.01,2013-07-17 21:04:00,
2013-07-17 17:05:00,89.5,76.7,30.07,NE,47,2.0,0.0,66,0.00,,OVC003,0.00,VWS V14.01,2013-07-17 21:05:00,
2013-07-17 17:09:00,89.9,77.5,30.07,NE,47,2.0,0.0,67,0.00,,OVC003,0.00,VWS V14.01,2013-07-17 21:09:00,
2013-07-17 17:10:00,88.9,76.5,30.07,NE,47,2.0,0.0,67,0.00,,OVC003,0.00,VWS V14.01,2013-07-17 21:10:00,
2013-07-17 17:14:00,89.4,76.6,30.07,NE,47,2.0,0.0,66,0.00,,OVC003,0.00,VWS V14.01,2013-07-17 21:14:00,
2013-07-17 17:15:00,88.4,77.4,30.07,NE,47,2.0,0.0,70,0.00,,OVC003,0.00,VWS V14.01,2013-07-17 21:15:00,
2013-07-17 17:19:00,88.8,76.9,30.07,NE,47,2.0,0.0,68,0.00,,OVC003,0.00,VWS V14.01,2013-07-17 21:19:00,
2013-07-17 17:20:00,87.8,77.2,30.07,NE,47,2.0,0.0,71,0.00,,OVC003,0.00,VWS V14.01,2013-07-17 21:20:00,
2013-07-17 17:24:00,88.3,77.3,30.07,NE,47,2.0,0.0,70,0.00,,OVC003,0.00,VWS V14.01,2013-07-17 21:24:00,
2013-07-17 17:25:00,86.6,77.7,30.07,East,91,6.0,6.0,75,0.00,,OVC003,0.00,VWS V14.01,2013-07-17 21:25:00,
2013-07-17 17:29:00,87.7,77.6,30.07,NE,47,4.0,4.0,72,0.00,,OVC003,0.00,VWS V14.01,2013-07-17 21:29:00,
2013-07-17 17:30:00,84.3,75.5,30.07,SSW,205,2.0,4.0,75,0.03,,OVC003,0.03,VWS V14.01,2013-07-17 21:30:00,
2013-07-17 17:34:00,86.1,76.4,30.07,SSW,205,3.0,4.0,73,0.01,,OVC003,0.01,VWS V14.01,2013-07-17 21:34:00,
2013-07-17 17:35:00,82.3,74.8,30.07,SSW,205,2.0,2.0,78,0.04,,OVC003,0.04,VWS V14.01,2013-07-17 21:35:00,
2013-07-17 17:39:00,83.9,75.1,30.07,SSW,205,2.0,2.0,75,0.04,,OVC003,0.04,VWS V14.01,2013-07-17 21:39:00,
2013-07-17 17:40:00,80.6,74.2,30.07,SSW,205,2.0,2.0,81,0.05,,OVC003,0.05,VWS V14.01,2013-07-17 21:40:00,
2013-07-17 17:44:00,82.0,74.8,30.07,SSW,205,3.0,3.0,79,0.04,,OVC003,0.04,VWS V14.01,2013-07-17 21:44:00,
2013-07-17 17:45:00,79.6,74.0,30.09,South,173,3.0,6.0,83,0.16,,OVC003,0.16,VWS V14.01,2013-07-17 21:45:00,
2013-07-17 17:50:00,80.4,74.4,30.07,West,273,6.0,6.0,82,0.06,,OVC003,0.06,VWS V14.01,2013-07-17 21:50:00,
2013-07-17 17:55:00,79.3,74.1,30.09,NW,305,2.0,2.0,84,0.16,,OVC003,0.16,VWS V14.01,2013-07-17 21:55:00,
2013-07-17 18:00:00,78.4,73.9,30.09,NNW,327,5.0,5.0,86,0.17,,OVC003,0.17,VWS V14.01,2013-07-17 22:00:00,
2013-07-17 18:05:00,77.7,73.5,30.09,NNW,335,2.0,2.0,87,0.29,,OVC003,0.29,VWS V14.01,2013-07-17 22:05:00,
2013-07-17 18:10:00,77.3,73.8,30.07,NNW,335,2.0,0.0,89,0.29,,OVC003,0.29,VWS V14.01,2013-07-17 22:10:00,
2013-07-17 18:15:00,77.4,74.2,30.07,NNW,335,2.0,0.0,90,0.29,,OVC003,0.29,VWS V14.01,2013-07-17 22:15:00,
2013-07-17 18:20:00,77.8,74.6,30.07,NNW,335,2.0,0.0,90,0.29,,OVC003,0.29,VWS V14.01,2013-07-17 22:20:00,
2013-07-17 18:25:00,78.1,75.3,30.07,NNW,335,2.0,0.0,91,0.29,,OVC003,0.29,VWS V14.01,2013-07-17 22:25:00,
2013-07-17 18:30:00,78.7,75.9,30.07,NNW,335,2.0,0.0,91,0.29,,OVC003,0.29,VWS V14.01,2013-07-17 22:30:00,
2013-07-17 18:35:00,79.3,76.8,30.07,NNW,335,2.0,2.0,92,0.29,,OVC003,0.29,VWS V14.01,2013-07-17 22:35:00,
2013-07-17 18:40:00,79.2,76.3,30.07,NNW,335,2.0,0.0,91,0.26,,OVC003,0.29,VWS V14.01,2013-07-17 22:40:00,
2013-07-17 18:45:00,79.2,76.7,30.07,NNW,335,2.0,0.0,92,0.25,,OVC003,0.29,VWS V14.01,2013-07-17 22:45:00,
2013-07-17 18:50:00,79.3,76.8,30.07,NNW,335,2.0,0.0,92,0.24,,OVC003,0.29,VWS V14.01,2013-07-17 22:50:00,
2013-07-17 18:55:00,79.7,77.2,30.06,NNW,335,2.0,0.0,92,0.13,,OVC003,0.29,VWS V14.01,2013-07-17 22:55:00,
2013-07-17 19:00:00,80.4,78.2,30.06,NNW,335,2.0,0.0,93,0.12,,OVC003,0.29,VWS V14.01,2013-07-17 23:00:00,
2013-07-17 19:05:00,80.9,78.4,30.06,NNW,335,2.0,0.0,92,0.01,,OVC003,0.29,VWS V14.01,2013-07-17 23:05:00,
2013-07-17 19:10:00,81.3,79.1,30.05,NNW,335,2.0,0.0,93,0.00,,OVC003,0.29,VWS V14.01,2013-07-17 23:10:00,
2013-07-17 19:15:00,81.4,78.9,30.05,NNW,335,2.0,0.0,92,0.00,,OVC003,0.29,VWS V14.01,2013-07-17 23:15:00,
2013-07-17 19:20:00,81.3,78.8,30.05,NNW,335,2.0,0.0,92,0.00,,OVC003,0.29,VWS V14.01,2013-07-17 23:20:00,
2013-07-17 19:25:00,81.4,78.9,30.05,NNW,335,2.0,0.0,92,0.00,,OVC003,0.29,VWS V14.01,2013-07-17 23:25:00,
2013-07-17 19:30:00,81.4,78.9,30.05,NNW,335,2.0,0.0,92,0.00,,OVC003,0.29,VWS V14.01,2013-07-17 23:30:00,
2013-07-17 19:35:00,81.5,79.0,30.05,NNW,335,2.0,0.0,92,0.00,,OVC003,0.29,VWS V14.01,2013-07-17 23:35:00,
2013-07-17 19:40:00,81.6,79.1,30.05,NNW,335,2.0,0.0,92,0.00,,OVC003,0.29,VWS V14.01,2013-07-17 23:40:00,
2013-07-17 19:45:00,81.7,79.2,30.05,ESE,105,2.0,0.0,92,0.00,,OVC003,0.29,VWS V14.01,2013-07-17 23:45:00,
2013-07-17 19:50:00,81.8,79.2,30.05,ESE,105,2.0,0.0,92,0.00,,OVC003,0.29,VWS V14.01,2013-07-17 23:50:00,
2013-07-17 19:55:00,81.8,79.2,30.06,ESE,105,2.0,0.0,92,0.00,,OVC003,0.29,VWS V14.01,2013-07-17 23:55:00,
2013-07-17 20:00:00,81.7,79.2,30.06,ESE,105,2.0,0.0,92,0.00,,OVC003,0.29,VWS V14.01,2013-07-18 00:00:00,
2013-07-17 20:05:00,81.4,78.9,30.06,ESE,105,2.0,0.0,92,0.00,,OVC003,0.29,VWS V14.01,2013-07-18 00:05:00,
2013-07-17 20:10:00,81.2,78.7,30.06,ESE,105,2.0,0.0,92,0.00,,OVC003,0.29,VWS V14.01,2013-07-18 00:10:00,
2013-07-17 20:15:00,81.1,78.6,30.06,ESE,105,2.0,0.0,92,0.00,,OVC003,0.29,VWS V14.01,2013-07-18 00:15:00,
2013-07-17 20:20:00,80.9,78.4,30.06,ESE,105,2.0,0.0,92,0.00,,OVC003,0.29,VWS V14.01,2013-07-18 00:20:00,
2013-07-17 20:25:00,80.7,78.2,30.06,ESE,105,2.0,0.0,92,0.00,,OVC003,0.29,VWS V14.01,2013-07-18 00:25:00,
2013-07-17 20:30:00,80.4,77.9,30.06,ESE,105,2.0,0.0,92,0.00,,OVC003,0.29,VWS V14.01,2013-07-18 00:30:00,
2013-07-17 20:35:00,80.2,77.7,30.06,ESE,105,2.0,0.0,92,0.00,,OVC003,0.29,VWS V14.01,2013-07-18 00:35:00,
2013-07-17 20:40:00,79.8,77.3,30.06,ESE,105,2.0,2.0,92,0.00,,OVC003,0.29,VWS V14.01,2013-07-18 00:40:00,
2013-07-17 20:45:00,79.6,77.1,30.06,ESE,105,2.0,0.0,92,0.00,,OVC003,0.29,VWS V14.01,2013-07-18 00:45:00,
2013-07-17 20:50:00,79.4,76.9,30.06,ESE,105,2.0,0.0,92,0.00,,OVC003,0.29,VWS V14.01,2013-07-18 00:50:00,
2013-07-17 20:55:00,79.1,76.2,30.06,ESE,105,2.0,0.0,91,0.00,,OVC003,0.29,VWS V14.01,2013-07-18 00:55:00,
2013-07-17 21:00:00,78.9,76.1,30.06,ESE,105,2.0,2.0,91,0.00,,OVC003,0.29,VWS V14.01,2013-07-18 01:00:00,
2013-07-17 21:05:00,78.7,75.9,30.06,ESE,105,2.0,0.0,91,0.00,,OVC003,0.29,VWS V14.01,2013-07-18 01:05:00,
2013-07-17 21:10:00,78.5,75.7,30.05,ESE,105,2.0,0.0,91,0.00,,OVC003,0.29,VWS V14.01,2013-07-18 01:10:00,
2013-07-17 21:15:00,78.2,75.4,30.05,ESE,105,2.0,0.0,91,0.00,,OVC003,0.29,VWS V14.01,2013-07-18 01:15:00,
2013-07-17 21:20:00,77.6,74.4,30.05,ESE,105,2.0,0.0,90,0.00,,OVC003,0.29,VWS V14.01,2013-07-18 01:20:00,
2013-07-17 21:25:00,77.0,73.8,30.05,ESE,105,2.0,0.0,90,0.00,,OVC003,0.29,VWS V14.01,2013-07-18 01:25:00,
2013-07-17 21:26:00,77.3,74.1,30.05,ESE,105,2.0,0.0,90,0.00,,OVC003,0.29,VWS V14.01,2013-07-18 01:26:00,
2013-07-17 21:30:00,76.7,73.6,30.06,ESE,105,2.0,0.0,90,0.00,,OVC003,0.29,VWS V14.01,2013-07-18 01:30:00,
2013-07-17 21:31:00,77.1,73.9,30.05,ESE,105,2.0,0.0,90,0.00,,OVC003,0.29,VWS V14.01,2013-07-18 01:31:00,
2013-07-17 21:35:00,79.7,77.2,30.06,ESE,105,2.0,2.0,92,0.00,,OVC003,0.29,VWS V14.01,2013-07-18 01:35:00,
2013-07-17 21:36:00,76.9,73.8,30.05,ESE,105,2.0,0.0,90,0.00,,OVC003,0.29,VWS V14.01,2013-07-18 01:36:00,
2013-07-17 21:40:00,76.5,73.7,30.06,ESE,105,2.0,0.0,91,0.00,,OVC003,0.29,VWS V14.01,2013-07-18 01:40:00,
2013-07-17 21:41:00,76.7,73.9,30.06,ESE,105,2.0,0.0,91,0.00,,OVC003,0.29,VWS V14.01,2013-07-18 01:41:00,
2013-07-17 21:45:00,79.3,76.8,30.06,ESE,105,2.0,0.0,92,0.00,,OVC003,0.29,VWS V14.01,2013-07-18 01:45:00,
2013-07-17 21:46:00,76.6,73.8,30.06,ESE,105,2.0,0.0,91,0.00,,OVC003,0.29,VWS V14.01,2013-07-18 01:46:00,
2013-07-17 21:50:00,76.0,72.9,30.07,ESE,105,2.0,0.0,90,0.00,,OVC003,0.29,VWS V14.01,2013-07-18 01:50:00,
2013-07-17 21:51:00,76.5,73.7,30.06,ESE,105,2.0,0.0,91,0.00,,OVC003,0.29,VWS V14.01,2013-07-18 01:51:00,
2013-07-17 21:55:00,75.8,73.0,30.07,ESE,105,2.0,0.0,91,0.00,,OVC003,0.29,VWS V14.01,2013-07-18 01:55:00,
2013-07-17 21:56:00,76.2,73.1,30.07,ESE,105,2.0,0.0,90,0.00,,OVC003,0.29,VWS V14.01,2013-07-18 01:56:00,
2013-07-17 22:00:00,75.7,72.9,30.07,ESE,105,2.0,0.0,91,0.00,,OVC003,0.29,VWS V14.01,2013-07-18 02:00:00,
2013-07-17 22:01:00,75.9,73.1,30.07,ESE,105,2.0,0.0,91,0.00,,OVC003,0.29,VWS V14.01,2013-07-18 02:01:00,
2013-07-17 22:05:00,75.5,72.7,30.07,ESE,105,2.0,0.0,91,0.00,,OVC003,0.29,VWS V14.01,2013-07-18 02:05:00,
2013-07-17 22:06:00,75.7,72.9,30.07,ESE,105,2.0,0.0,91,0.00,,OVC003,0.29,VWS V14.01,2013-07-18 02:06:00,
2013-07-17 22:10:00,75.5,72.7,30.07,ESE,105,2.0,0.0,91,0.00,,OVC003,0.29,VWS V14.01,2013-07-18 02:10:00,
2013-07-17 22:11:00,75.6,72.8,30.07,ESE,105,2.0,0.0,91,0.00,,OVC003,0.29,VWS V14.01,2013-07-18 02:11:00,
2013-07-17 22:15:00,75.5,72.7,30.07,ESE,105,2.0,0.0,91,0.00,,OVC003,0.29,VWS V14.01,2013-07-18 02:15:00,
2013-07-17 22:16:00,75.5,72.7,30.07,ESE,105,2.0,0.0,91,0.00,,OVC003,0.29,VWS V14.01,2013-07-18 02:16:00,
2013-07-17 22:20:00,75.4,72.6,30.07,ESE,105,2.0,0.0,91,0.00,,OVC003,0.29,VWS V14.01,2013-07-18 02:20:00,
2013-07-17 22:21:00,75.5,72.7,30.07,ESE,105,2.0,0.0,91,0.00,,OVC003,0.29,VWS V14.01,2013-07-18 02:21:00,
2013-07-17 22:25:00,75.2,72.4,30.07,ESE,105,2.0,0.0,91,0.00,,OVC003,0.29,VWS V14.01,2013-07-18 02:25:00,
2013-07-17 22:26:00,75.4,72.6,30.07,ESE,105,2.0,0.0,91,0.00,,OVC003,0.29,VWS V14.01,2013-07-18 02:26:00,
2013-07-17 22:30:00,75.1,72.3,30.07,ESE,105,2.0,2.0,91,0.00,,OVC003,0.29,VWS V14.01,2013-07-18 02:30:00,
2013-07-17 22:31:00,75.3,72.5,30.07,ESE,105,2.0,0.0,91,0.00,,OVC003,0.29,VWS V14.01,2013-07-18 02:31:00,
2013-07-17 22:35:00,75.0,72.2,30.07,ESE,105,2.0,0.0,91,0.00,,OVC003,0.29,VWS V14.01,2013-07-18 02:35:00,
2013-07-17 22:36:00,75.1,72.3,30.07,ESE,105,2.0,0.0,91,0.00,,OVC003,0.29,VWS V14.01,2013-07-18 02:36:00,
2013-07-17 22:40:00,74.8,72.0,30.07,ESE,105,2.0,2.0,91,0.00,,OVC003,0.29,VWS V14.01,2013-07-18 02:40:00,
2013-07-17 22:41:00,75.0,72.2,30.07,ESE,105,2.0,0.0,91,0.00,,OVC003,0.29,VWS V14.01,2013-07-18 02:41:00,
2013-07-17 22:45:00,74.8,72.0,30.07,ESE,105,2.0,0.0,91,0.00,,OVC003,0.29,VWS V14.01,2013-07-18 02:45:00,
2013-07-17 22:46:00,74.9,72.1,30.07,ESE,105,2.0,0.0,91,0.00,,OVC003,0.29,VWS V14.01,2013-07-18 02:46:00,
2013-07-17 22:50:00,74.8,72.3,30.07,ESE,105,2.0,2.0,92,0.00,,OVC003,0.29,VWS V14.01,2013-07-18 02:50:00,
2013-07-17 22:51:00,74.8,72.0,30.07,ESE,105,2.0,0.0,91,0.00,,OVC003,0.29,VWS V14.01,2013-07-18 02:51:00,
2013-07-17 22:55:00,75.1,72.6,30.07,ESE,105,2.0,0.0,92,0.00,,OVC003,0.29,VWS V14.01,2013-07-18 02:55:00,
2013-07-17 22:56:00,74.8,72.0,30.07,ESE,105,2.0,2.0,91,0.00,,OVC003,0.29,VWS V14.01,2013-07-18 02:56:00,
2013-07-17 23:00:00,75.1,72.6,30.07,ESE,105,2.0,2.0,92,0.00,,OVC003,0.29,VWS V14.01,2013-07-18 03:00:00,
2013-07-17 23:01:00,75.0,72.5,30.07,ESE,105,2.0,0.0,92,0.00,,OVC003,0.29,VWS V14.01,2013-07-18 03:01:00,
2013-07-17 23:05:00,75.0,72.5,30.07,ESE,105,2.0,0.0,92,0.00,,OVC003,0.29,VWS V14.01,2013-07-18 03:05:00,
2013-07-17 23:06:00,75.1,72.6,30.07,ESE,105,2.0,0.0,92,0.00,,OVC003,0.29,VWS V14.01,2013-07-18 03:06:00,
2013-07-17 23:10:00,75.0,72.5,30.07,ESE,105,2.0,0.0,92,0.00,,OVC003,0.29,VWS V14.01,2013-07-18 03:10:00,
2013-07-17 23:11:00,75.0,72.5,30.07,ESE,105,2.0,0.0,92,0.00,,OVC003,0.29,VWS V14.01,2013-07-18 03:11:00,
2013-07-17 23:15:00,74.9,72.4,30.07,ESE,105,2.0,0.0,92,0.00,,OVC003,0.29,VWS V14.01,2013-07-18 03:15:00,
2013-07-17 23:16:00,74.9,72.4,30.07,ESE,105,2.0,0.0,92,0.00,,OVC003,0.29,VWS V14.01,2013-07-18 03:16:00,
2013-07-17 23:20:00,74.7,72.2,30.07,ESE,105,2.0,0.0,92,0.00,,OVC003,0.29,VWS V14.01,2013-07-18 03:20:00,
2013-07-17 23:21:00,75.0,72.5,30.07,ESE,105,2.0,0.0,92,0.00,,OVC003,0.29,VWS V14.01,2013-07-18 03:21:00,
2013-07-17 23:25:00,75.2,72.4,30.07,ESE,105,2.0,0.0,91,0.00,,OVC003,0.29,VWS V14.01,2013-07-18 03:25:00,
2013-07-17 23:26:00,74.8,72.3,30.07,ESE,105,2.0,0.0,92,0.00,,OVC003,0.29,VWS V14.01,2013-07-18 03:26:00,
2013-07-17 23:30:00,74.5,72.0,30.06,ESE,105,2.0,2.0,92,0.00,,OVC003,0.29,VWS V14.01,2013-07-18 03:30:00,
2013-07-17 23:31:00,74.6,72.1,30.07,ESE,105,2.0,0.0,92,0.00,,OVC003,0.29,VWS V14.01,2013-07-18 03:31:00,
2013-07-17 23:35:00,74.4,71.9,30.06,ESE,105,2.0,0.0,92,0.00,,OVC003,0.29,VWS V14.01,2013-07-18 03:35:00,
2013-07-17 23:36:00,74.5,72.0,30.07,ESE,105,2.0,2.0,92,0.00,,OVC003,0.29,VWS V14.01,2013-07-18 03:36:00,
2013-07-17 23:40:00,74.3,71.8,30.06,ESE,105,2.0,0.0,92,0.00,,OVC003,0.29,VWS V14.01,2013-07-18 03:40:00,
2013-07-17 23:41:00,74.5,72.0,30.06,ESE,105,2.0,0.0,92,0.00,,OVC003,0.29,VWS V14.01,2013-07-18 03:41:00,
2013-07-17 23:45:00,74.2,71.7,30.06,ESE,105,2.0,0.0,92,0.00,,OVC003,0.29,VWS V14.01,2013-07-18 03:45:00,
2013-07-17 23:46:00,74.3,71.8,30.06,ESE,105,2.0,0.0,92,0.00,,OVC003,0.29,VWS V14.01,2013-07-18 03:46:00,
2013-07-17 23:50:00,74.8,72.3,30.07,ESE,105,2.0,2.0,92,0.00,,OVC003,0.29,VWS V14.01,2013-07-18 03:50:00,
2013-07-17 23:51:00,74.2,71.7,30.06,ESE,105,2.0,0.0,92,0.00,,OVC003,0.29,VWS V14.01,2013-07-18 03:51:00,
2013-07-17 23:55:00,74.1,71.9,30.06,ESE,105,2.0,0.0,93,0.00,,OVC003,0.29,VWS V14.01,2013-07-18 03:55:00,
2013-07-17 23:56:00,74.1,71.6,30.06,ESE,105,2.0,0.0,92,0.00,,OVC003,0.29,VWS V14.01,2013-07-18 03:56:00,